Terug naar catalogus

ATLAS 5 CENTAUR R/B

ActiefHEO
NORAD 28473·ROCKET BODY·🇺🇸 United States

Gelanceerd Dec 17, 2004 vanaf Cape Canaveral Space Force Station

Loading…

Volgende Passages (komende 24 uur)

TLE

VersSource: Space-Track

Epoch: Sep 8, 2026, 08:33 UTC

1 28473U 04048B   26251.35691647  .00000073  00000-0  00000-0 0  9997
2 28473  18.9641 314.9537 5705822  86.0822 333.5998  2.06070633163559

Volg ATLAS 5 CENTAUR R/B in realtime met AllMySat

Download on the App Store